Wind_Speed
10 8 8 8 7 6 5 4 2 2 1 2 4 5 7 8 10 11 12 13 14 15 16 17 17 18 19 20 21 21 21 22 22 23 24 25 25 25 25 25 24 23 22 20
9 8 8 8 7 6 5 4 3 2 1 2 4 5 7 8 10 11 12 13 14 15 16 17 17 18 19 20 20 21 21 21 22 22 23 24 24 25 25 25 24 23 23 22
10 9 8 8 7 6 5 4 3 3 3 3 5 6 8 9 10 11 13 14 15 16 17 17 18 19 19 19 20 20 21 21 21 21 22 23 23 24 24 24 24 23 23 23
10 9 8 7 7 6 6 5 4 4 4 5 6 7 9 10 11 12 13 14 15 16 17 18 18 19 19 19 20 20 20 21 21 21 21 22 22 23 23 23 23 23 22 23
11 10 8 8 7 7 7 6 6 6 6 7 8 9 10 11 12 12 14 14 15 16 17 18 18 19 19 19 19 20 20 20 20 20 20 21 21 21 22 22 22 22 22 22
12 11 10 9 9 9 8 8 8 8 9 10 10 11 11 12 13 14 14 15 16 17 18 18 19 19 19 19 19 20 20 20 20 20 20 20 20 20 20 21 20 21 21 21
14 14 13 10 11 11 11 9 10 11 11 12 13 13 14 14 14 15 16 16 17 18 18 19 20 20 20 20 20 20 20 20 20 20 20 20 20 20 20 20 20 20 20 20
17 16 15 12 14 14 13 13 13 14 14 14 15 15 15 16 16 16 17 18 18 19 19 20 20 21 21 21 21 21 21 21 21 21 21 20 20 20 20 20 19 19 19 19
19 18 16 16 17 17 17 16 16 16 16 17 17 17 17 17 17 18 18 19 19 20 21 21 22 22 23 23 23 23 23 23 22 22 22 21 21 20 20 20 19 19 19 19
22 21 20 20 20 20 20 19 19 19 19 19 19 18 18 18 19 19 20 20 21 22 22 23 24 24 25 25 25 25 24 24 24 23 23 22 22 21 21 20 20 20 19 19
25 24 23 23 23 23 23 22 22 21 21 21 21 20 20 20 21 21 22 22 23 24 25 25 26 27 27 27 27 27 26 26 25 25 24 24 24 23 23 22 22 21 21 20
27 27 26 25 25 25 25 25 24 24 23 23 23 23 22 23 23 23 24 25 25 26 27 28 29 29 29 28 28 28 28 28 27 27 26 25 25 25 24 24 24 23 23 22
29 29 28 27 27 27 27 27 26 26 26 25 25 25 25 25 25 26 26 27 28 28 29 30 31 31 31 30 30 30 30 29 29 28 28 27 27 26 26 26 26 26 26 25
31 31 31 30 30 30 29 29 29 28 28 28 27 27 28 28 28 28 29 29 30 31 32 32 33 33 32 32 32 31 31 30 30 29 29 29 30 30 29 28 28 28 28 28
33 33 33 32 32 32 32 32 31 31 31 30 30 30 30 30 30 31 31 32 33 33 33 34 34 33 33 33 33 32 32 31 31 31 31 31 32 32 32 31 31 30 30 30
36 36 36 35 34 35 35 35 34 34 34 33 33 33 33 33 33 34 34 35 35 35 35 35 35 35 35 35 34 34 33 33 33 33 33 33 33 33 33 32 32 32 33 33
38 39 38 38 38 38 38 38 37 37 37 36 36 36 36 36 36 36 37 37 37 37 37 37 37 37 37 36 36 35 35 34 34 34 33 33 33 33 33 34 34 34 35 35
41 42 41 41 41 41 41 41 40 40 40 40 40 40 39 39 39 39 40 40 39 39 39 39 39 39 38 37 36 36 35 34 34 34 33 33 34 34 35 36 36 36 37 37
43 44 44 43 43 43 43 43 43 43 43 43 43 43 43 42 42 42 42 42 42 42 41 41 40 39 38 37 36 35 34 34 34 35 35 35 36 37 37 38 38 39 39 40
46 46 46 46 46 46 46 46 45 45 45 46 46 45 45 45 45 45 45 44 44 43 42 42 41 39 38 36 36 35 35 35 36 36 37 37 38 39 39 40 41 41 42 43
48 48 48 49 49 49 49 48 48 48 48 48 48 48 48 48 48 47 47 46 45 44 43 42 40 39 38 37 37 37 37 37 38 38 39 40 40 41 42 43 44 45 46 47
49 50 50 51 51 51 51 51 50 50 50 50 50 50 50 50 49 49 48 46 45 44 43 42 41 39 39 38 38 38 39 39 40 41 42 42 43 44 45 47 48 49 50 50
50 50 51 52 53 53 53 52 52 52 52 52 51 51 51 50 49 49 48 46 45 44 43 42 41 40 40 39 39 40 40 41 42 43 44 46 47 48 49 50 52 53 53 54
49 50 51 51 52 52 53 53 53 53 53 52 52 51 51 51 50 49 48 46 45 44 43 42 41 40 40 40 41 42 42 44 45 46 47 48 50 51 53 54 55 56 56 57
49 49 50 51 51 52 52 52 53 53 53 52 52 51 51 50 49 48 47 46 45 44 42 41 41 41 41 41 42 43 44 46 47 48 49 51 52 54 55 56 57 57 58 59
49 48 49 49 50 50 51 51 51 51 52 51 51 50 50 48 47 46 45 44 43 43 42 41 41 41 42 43 44 45 46 47 48 50 51 53 54 55 56 57 57 58 59 59
48 48 47 47 47 48 48 49 49 50 50 50 49 48 48 47 46 45 44 43 43 42 42 42 42 42 43 44 45 46 47 48 50 51 52 53 54 55 56 57 57 58 58 58
Wind_Direction
207 203 196 198 198 197 202 209 225 246 308 343 351 354 355 355 356 357 359 359 0 1 1 1 2 3 4 5 6 7 9 10 12 13 14 16 17 18 19 20 21 21 20 19
202 199 200 199 199 203 210 217 225 243 295 330 341 345 348 349 351 353 354 356 357 358 358 358 359 359 1 2 4 5 6 7 9 10 11 13 14 16 18 19 20 21 22 22
201 202 200 199 202 207 212 216 231 259 293 316 327 334 338 342 345 348 350 352 353 355 355 356 356 357 358 359 1 2 3 4 5 7 8 10 11 13 15 17 19 20 21 22
203 206 209 199 206 214 220 231 249 270 290 304 314 322 328 333 338 341 343 345 347 349 350 351 353 354 355 356 356 357 358 360 1 2 4 6 8 10 12 14 16 17 19 19
212 216 218 209 218 230 237 244 258 272 285 296 304 312 318 323 327 330 334 337 339 341 343 345 346 347 348 350 351 352 353 354 356 358 359 1 3 5 7 9 11 13 15 16
226 230 234 220 228 240 247 252 263 274 284 292 299 306 311 314 318 322 326 329 331 334 336 338 340 341 342 343 345 346 347 348 350 352 354 356 357 359 1 3 5 7 9 11
235 239 241 233 241 249 255 262 267 274 282 289 295 301 305 309 312 316 318 321 324 327 329 331 333 335 336 337 338 338 340 342 343 345 346 348 350 352 354 356 358 0 3 5
240 243 245 243 250 256 263 266 270 276 281 286 291 296 300 304 307 310 312 315 318 321 323 326 328 329 330 330 331 332 333 334 335 337 339 340 341 344 346 348 350 351 354 356
244 248 251 251 255 259 263 267 271 276 279 283 287 291 295 299 302 305 308 311 314 317 319 321 323 324 325 325 324 325 326 327 328 329 331 332 334 335 337 338 340 341 343 345
249 251 253 255 257 260 264 268 271 274 277 281 284 288 292 295 299 302 305 307 310 312 314 316 318 320 320 319 319 319 320 321 322 322 323 324 325 326 328 329 331 333 334 336
251 253 255 256 259 261 264 267 270 273 276 279 283 286 289 292 295 299 301 304 306 308 310 312 314 316 316 316 315 315 316 316 316 317 317 319 319 320 320 321 322 324 325 327
253 254 255 257 260 262 265 267 269 272 275 278 281 284 287 290 293 296 298 301 303 305 307 308 311 312 312 312 312 312 312 312 312 312 313 313 314 314 315 315 315 315 316 317
254 255 257 258 260 262 264 266 269 271 274 276 279 282 285 289 291 294 296 299 301 303 304 306 307 308 309 308 308 308 308 308 308 307 307 308 308 308 308 308 308 309 309 309
255 256 257 258 260 262 263 265 267 270 272 275 278 281 284 287 290 292 295 297 299 301 303 305 306 306 305 305 305 304 304 304 304 304 304 305 305 305 304 303 302 302 302 302
255 256 257 257 259 261 263 265 267 269 272 274 277 280 283 286 288 291 294 296 298 299 300 302 304 304 304 303 302 301 301 301 301 301 302 302 303 302 302 301 301 300 299 298
254 256 257 258 260 261 263 265 267 269 271 273 275 278 281 284 286 289 292 295 297 298 298 299 301 302 301 301 299 299 299 299 299 299 300 300 300 300 300 300 299 299 298 297
255 257 258 259 260 262 263 265 266 268 270 272 274 277 280 282 285 288 291 293 295 296 297 297 299 299 299 298 297 297 298 298 299 299 299 299 299 299 299 299 298 297 297 296
255 256 258 259 261 262 264 265 267 268 270 272 274 277 279 281 284 287 289 291 293 294 295 296 297 297 296 296 296 296 297 298 298 298 299 298 298 298 298 298 297 297 296 295
254 256 258 259 260 262 263 265 267 268 270 272 274 276 279 281 283 286 288 290 292 293 294 295 296 296 295 294 294 295 296 296 297 298 298 298 298 298 298 298 297 296 296 295
255 255 257 258 259 261 262 264 266 268 270 272 274 276 278 281 283 285 287 289 291 291 292 293 294 294 293 293 293 293 294 296 297 298 298 298 298 298 298 298 298 297 296 295
254 255 256 257 258 260 262 263 265 267 269 271 273 275 277 280 282 284 286 288 289 290 291 292 293 292 291 291 292 293 294 295 297 298 298 298 299 299 299 299 298 298 297 296
253 254 255 257 258 259 261 263 265 267 269 271 273 275 277 279 281 283 285 286 287 288 289 290 291 290 290 290 291 292 294 295 296 298 298 299 299 299 300 300 300 299 298 298
254 254 255 256 257 259 261 262 264 266 268 270 272 274 276 278 279 281 283 284 285 287 288 289 289 289 289 290 290 292 293 295 296 298 299 299 300 300 301 301 301 301 300 299
254 254 255 256 257 259 261 262 264 265 267 269 271 273 275 277 278 279 280 281 283 285 286 287 287 288 289 290 291 292 294 296 297 298 300 301 302 302 302 303 303 302 302 301
255 255 256 256 257 259 260 262 263 264 266 268 270 272 274 275 276 277 278 279 281 283 284 284 286 287 289 290 292 293 295 296 298 300 301 302 303 304 304 304 304 304 303 303
255 255 256 257 258 259 260 261 262 264 265 266 268 270 272 273 274 275 276 278 279 280 282 283 285 287 289 290 292 293 295 297 299 301 302 303 304 305 305 305 305 305 305 305
254 255 256 257 257 258 259 260 261 262 264 265 267 268 270 271 272 273 274 275 277 279 280 282 285 287 289 291 292 294 296 299 301 302 303 305 305 306 307 307 307 307 307 306
Height
5858 5859 5860 5862 5863 5863 5864 5864 5865 5864 5864 5863 5862 5861 5860 5858 5856 5854 5851 5849 5846 5843 5839 5836 5833 5829 5825 5821 5817 5813 5809 5805 5800 5796 5791 5787 5782 5777 5772 5767 5762 5757 5753 5749
5857 5858 5859 5861 5862 5863 5863 5863 5864 5864 5864 5863 5862 5861 5859 5858 5856 5853 5851 5848 5846 5843 5839 5836 5833 5829 5826 5822 5818 5814 5810 5806 5802 5797 5793 5788 5784 5779 5774 5769 5764 5760 5756 5751
5856 5857 5859 5860 5861 5862 5862 5863 5863 5863 5863 5862 5861 5860 5858 5857 5855 5853 5850 5848 5845 5842 5839 5836 5833 5829 5826 5822 5818 5814 5810 5806 5802 5798 5794 5790 5785 5781 5776 5772 5767 5763 5758 5754
5855 5857 5858 5861 5860 5861 5861 5862 5862 5862 5861 5861 5860 5859 5857 5855 5854 5852 5849 5847 5844 5841 5838 5835 5832 5829 5825 5821 5818 5814 5810 5806 5802 5799 5795 5790 5786 5782 5778 5774 5769 5765 5761 5757
5854 5855 5856 5858 5859 5859 5860 5860 5860 5860 5860 5859 5858 5857 5856 5854 5852 5850 5848 5845 5843 5840 5837 5834 5831 5828 5824 5821 5817 5814 5810 5806 5802 5799 5795 5791 5787 5783 5779 5775 5771 5767 5763 5759
5853 5853 5855 5857 5857 5857 5858 5858 5858 5858 5857 5856 5855 5855 5854 5852 5850 5848 5846 5843 5841 5838 5836 5833 5830 5826 5823 5820 5816 5813 5809 5806 5802 5798 5795 5791 5787 5784 5780 5776 5772 5768 5765 5761
5850 5850 5852 5854 5854 5854 5856 5857 5856 5855 5854 5854 5853 5852 5851 5849 5847 5845 5843 5841 5839 5836 5833 5831 5828 5824 5821 5818 5815 5811 5808 5804 5801 5797 5794 5790 5787 5783 5780 5776 5773 5769 5765 5762
5846 5847 5851 5850 5850 5851 5852 5852 5852 5851 5851 5850 5849 5848 5847 5845 5844 5842 5840 5838 5836 5833 5831 5828 5825 5822 5819 5815 5812 5809 5805 5802 5799 5796 5793 5789 5786 5783 5779 5776 5773 5769 5766 5762
5843 5846 5846 5846 5847 5847 5847 5847 5847 5847 5847 5846 5845 5844 5843 5841 5840 5838 5836 5834 5832 5830 5827 5824 5822 5819 5816 5812 5809 5806 5803 5799 5796 5793 5790 5787 5784 5781 5778 5775 5772 5769 5765 5762
5838 5839 5840 5841 5841 5842 5842 5843 5843 5842 5842 5841 5840 5839 5838 5837 5836 5834 5832 5830 5828 5826 5823 5820 5818 5815 5811 5808 5805 5802 5799 5796 5793 5790 5787 5784 5781 5778 5775 5772 5770 5767 5764 5761
5832 5833 5834 5835 5836 5836 5837 5837 5837 5837 5836 5836 5835 5834 5833 5832 5831 5829 5827 5825 5823 5821 5818 5815 5813 5810 5807 5803 5800 5797 5794 5791 5789 5786 5783 5780 5777 5774 5772 5769 5766 5764 5761 5758
5826 5827 5828 5829 5829 5830 5830 5830 5831 5831 5830 5830 5829 5828 5827 5826 5825 5823 5822 5820 5817 5815 5812 5809 5807 5804 5801 5797 5794 5791 5788 5785 5783 5780 5777 5775 5773 5770 5767 5764 5762 5759 5757 5754
5818 5819 5820 5821 5822 5822 5823 5823 5823 5823 5823 5823 5822 5822 5821 5820 5818 5817 5815 5813 5811 5808 5806 5803 5800 5797 5794 5791 5788 5785 5782 5779 5776 5774 5771 5769 5767 5764 5762 5760 5757 5754 5751 5749
5810 5811 5812 5813 5814 5814 5815 5815 5816 5816 5816 5816 5815 5814 5813 5812 5811 5809 5808 5806 5803 5801 5798 5796 5793 5790 5787 5784 5781 5778 5775 5772 5769 5767 5764 5762 5759 5757 5755 5753 5751 5748 5745 5742
5801 5801 5803 5804 5805 5806 5806 5806 5807 5807 5807 5807 5807 5806 5805 5804 5803 5801 5800 5798 5795 5793 5790 5788 5785 5782 5779 5776 5773 5770 5767 5764 5762 5759 5757 5754 5752 5749 5747 5744 5742 5740 5738 5736
5790 5791 5793 5794 5795 5796 5797 5797 5798 5798 5798 5798 5798 5797 5796 5795 5794 5793 5791 5789 5787 5784 5782 5779 5776 5773 5770 5767 5764 5761 5758 5756 5753 5751 5748 5746 5743 5741 5738 5736 5734 5731 5729 5727
5780 5781 5782 5784 5785 5786 5786 5787 5787 5788 5788 5788 5788 5787 5786 5786 5784 5783 5781 5779 5777 5775 5772 5769 5767 5764 5761 5758 5755 5752 5749 5747 5744 5742 5739 5737 5734 5732 5729 5727 5724 5722 5720 5717
5768 5769 5770 5772 5774 5774 5775 5776 5776 5777 5777 5777 5777 5776 5776 5775 5774 5772 5771 5769 5767 5765 5762 5759 5756 5754 5751 5748 5745 5742 5740 5737 5735 5732 5730 5727 5725 5722 5720 5717 5714 5712 5709 5707
5755 5757 5758 5760 5761 5762 5763 5764 5764 5765 5765 5765 5765 5764 5764 5763 5762 5761 5760 5758 5756 5754 5751 5748 5745 5743 5740 5737 5735 5732 5730 5727 5725 5722 5720 5717 5715 5712 5709 5706 5704 5701 5698 5695
5742 5743 5745 5746 5748 5749 5750 5751 5752 5752 5752 5752 5752 5752 5752 5751 5750 5749 5748 5746 5744 5741 5739 5737 5734 5731 5729 5726 5724 5722 5720 5717 5715 5712 5709 5707 5704 5701 5698 5695 5692 5689 5685 5682
5727 5729 5731 5732 5734 5735 5736 5737 5738 5739 5739 5739 5739 5739 5739 5738 5737 5736 5735 5734 5732 5729 5727 5725 5722 5720 5717 5715 5713 5711 5708 5706 5703 5701 5698 5695 5692 5688 5685 5682 5678 5675 5671 5668
5712 5714 5716 5717 5719 5721 5722 5723 5724 5725 5725 5725 5726 5725 5725 5725 5724 5723 5722 5721 5719 5717 5715 5713 5710 5708 5706 5704 5702 5699 5697 5694 5691 5688 5685 5682 5678 5675 5671 5667 5663 5659 5655 5652
5696 5698 5700 5702 5704 5705 5707 5709 5710 5710 5711 5711 5711 5711 5711 5711 5710 5710 5709 5708 5706 5704 5702 5700 5698 5696 5694 5692 5689 5687 5684 5681 5678 5675 5672 5668 5664 5660 5656 5652 5647 5643 5638 5633
5681 5683 5685 5686 5688 5690 5692 5694 5695 5696 5696 5697 5697 5697 5697 5697 5696 5696 5695 5694 5693 5691 5689 5687 5685 5683 5681 5679 5677 5674 5671 5668 5664 5661 5657 5653 5648 5644 5639 5634 5629 5624 5619 5614
5665 5667 5670 5672 5673 5675 5677 5678 5679 5681 5681 5682 5683 5683 5683 5682 5682 5682 5681 5680 5679 5678 5676 5674 5673 5671 5669 5666 5663 5661 5657 5654 5650 5646 5642 5637 5632 5627 5622 5617 5611 5605 5599 5593
5649 5652 5654 5656 5658 5660 5662 5663 5665 5666 5667 5667 5668 5668 5668 5668 5668 5668 5667 5667 5666 5664 5663 5662 5660 5658 5655 5653 5650 5646 5643 5639 5635 5631 5626 5621 5616 5611 5605 5599 5592 5586 5580 5573
5633 5636 5639 5641 5643 5645 5646 5648 5650 5651 5652 5653 5653 5654 5654 5654 5654 5654 5654 5653 5652 5651 5650 5648 5646 5644 5642 5639 5636 5632 5628 5624 5620 5615 5610 5605 5600 5594 5588 5581 5574 5567 5561 5554